sat.trackr.live / text

‹ back to catalog

STARLINK-2731

NORAD 48651 · 2021-044P

PAYLOAD ACTIVE UNKNOWN

§ Identity

Operator
Country
US
Launch date
2021-05-26
Launch site
AFETR
Launch vehicle
Mass (kg)
RCS (m²)

Purposes: comms

External: N2YO · Heavens-Above · Gunter

§ Orbital elements

Epoch: 2026-05-25T05:00:42.812640Z

Period
94.01 min
Inclination
53.1602°
Eccentricity
0.0001130
Mean motion
15.31700985 rev/d
Perigee alt
470.0 km
Apogee alt
471.5 km
Semi-major
6,848.9 km
B*
4.7929e-5
RAAN
118.0502°
Arg perigee
79.4241°
Mean anomaly
280.6887°
Rev number
27,554

§ Raw data

STARLINK-27311 48651U 21044P   26145.20882885  .00001123  00000+0  47929-4 0  99952 48651  53.1602 118.0502 0001130  79.4241 280.6887 15.31700985275543

JSON: /api/v1/satellites/48651 · /tle

For live sub-satellite position, see the globe view (requires WebGL).

§ Visibility from observer

Set your observer location to see the next 7 days of passes ≥ 10°. The values pass through the URL so the page stays shareable.

No JS? Fill the form by hand. The geolocation button needs JavaScript.